• In Uzbekistan
  • List of Countries
  • For 7 days
  • Water Temperature
  • Satellite Maps
  • Weather Map
  • Weather Widgets
  • user-avatar
    Login

    Hourly Weather Wadi Musa

    Today, 18 December, Monday

    Time Temperature Precipitation Wind Pressure Humidity
    00:00 +16°C° 0 mm 1 mps 716 mmHg 30%
    01:00 +16°C° 0 mm 1 mps 715 mmHg 31%
    02:00 +15°C° 0 mm 2 mps 715 mmHg 28%
    03:00 +15°C° 0 mm 1 mps 715 mmHg 29%
    04:00 +15°C° 0 mm 1 mps 715 mmHg 30%
    05:00 +14°C° 0 mm 1 mps 716 mmHg 31%
    06:00 +15°C° 0 mm 1 mps 716 mmHg 30%
    07:00 +16°C° 0 mm 1 mps 716 mmHg 29%
    08:00 +18°C° 0 mm 2 mps 716 mmHg 21%
    09:00 +19°C° 0 mm 2 mps 716 mmHg 19%
    10:00 +21°C° 0 mm 2 mps 716 mmHg 18%
    11:00 +23°C° 0 mm 2 mps 717 mmHg 16%
    12:00 +24°C° 0 mm 2 mps 716 mmHg 16%
    13:00 +24°C° 0 mm 1 mps 716 mmHg 17%
    14:00 +24°C° 0 mm 1 mps 716 mmHg 17%
    15:00 +23°C° 0 mm 1 mps 716 mmHg 18%
    16:00 +22°C° 0 mm 1 mps 716 mmHg 19%
    17:00 +20°C° 0 mm 1 mps 716 mmHg 21%
    18:00 +20°C° 0 mm 1 mps 716 mmHg 21%
    19:00 +20°C° 0 mm 1 mps 716 mmHg 20%
    20:00 +20°C° 0 mm 1 mps 716 mmHg 20%
    21:00 +20°C° 0 mm 1 mps 716 mmHg 21%
    22:00 +19°C° 0 mm 2 mps 716 mmHg 23%
    23:00 +19°C° 0 mm 2 mps 716 mmHg 24%

    Tomorrow, 19 December, Tuesday

    Time Temperature Precipitation Wind Pressure Humidity
    00:00 +19°C° 0 mm 2 mps 716 mmHg 27%
    01:00 +19°C° 0 mm 2 mps 716 mmHg 29%
    02:00 +18°C° 0 mm 2 mps 716 mmHg 32%
    03:00 +19°C° 0 mm 1 mps 716 mmHg 33%
    04:00 +19°C° 0 mm 1 mps 716 mmHg 34%
    05:00 +18°C° 0 mm 1 mps 716 mmHg 35%
    06:00 +19°C° 0 mm 1 mps 716 mmHg 33%
    07:00 +18°C° 0 mm 2 mps 716 mmHg 31%
    08:00 +19°C° 0 mm 2 mps 717 mmHg 29%
    09:00 +20°C° 0 mm 2 mps 717 mmHg 26%
    10:00 +23°C° 0 mm 2 mps 717 mmHg 23%
    11:00 +24°C° 0 mm 2 mps 717 mmHg 20%
    12:00 +24°C° 0 mm 2 mps 717 mmHg 20%
    13:00 +25°C° 0 mm 2 mps 716 mmHg 19%
    14:00 +25°C° 0 mm 2 mps 716 mmHg 18%
    15:00 +24°C° 0 mm 2 mps 716 mmHg 19%
    16:00 +23°C° 0 mm 2 mps 715 mmHg 20%
    17:00 +21°C° 0 mm 2 mps 715 mmHg 21%
    18:00 +20°C° 0 mm 2 mps 715 mmHg 21%
    19:00 +20°C° 0 mm 2 mps 715 mmHg 21%
    20:00 +19°C° 0 mm 2 mps 715 mmHg 21%
    21:00 +19°C° 0 mm 2 mps 715 mmHg 21%
    22:00 +19°C° 0 mm 2 mps 715 mmHg 22%
    23:00 +18°C° 0 mm 2 mps 715 mmHg 22%

    Day after tomorrow, 20 December, Wednesday

    Time Temperature Precipitation Wind Pressure Humidity
    00:00 +19°C° 0 mm 1 mps 715 mmHg 21%
    01:00 +19°C° 0 mm 1 mps 715 mmHg 21%
    02:00 +18°C° 0 mm 1 mps 715 mmHg 21%
    03:00 +18°C° 0 mm 1 mps 714 mmHg 20%
    04:00 +18°C° 0 mm 1 mps 714 mmHg 20%
    05:00 +17°C° 0 mm 2 mps 714 mmHg 19%
    06:00 +17°C° 0 mm 2 mps 714 mmHg 19%
    07:00 +18°C° 0 mm 2 mps 715 mmHg 20%
    08:00 +19°C° 0 mm 2 mps 715 mmHg 20%
    09:00 +20°C° 0 mm 2 mps 715 mmHg 18%
    10:00 +23°C° 0 mm 2 mps 716 mmHg 17%
    11:00 +24°C° 0 mm 2 mps 716 mmHg 15%
    12:00 +24°C° 0 mm 1 mps 716 mmHg 16%
    13:00 +24°C° 0 mm 1 mps 715 mmHg 17%
    14:00 +24°C° 0 mm 1 mps 715 mmHg 18%
    15:00 +23°C° 0 mm 1 mps 715 mmHg 20%
    16:00 +22°C° 0 mm 1 mps 715 mmHg 22%
    17:00 +21°C° 0 mm 1 mps 715 mmHg 23%
    18:00 +21°C° 0 mm 1 mps 715 mmHg 22%
    19:00 +20°C° 0 mm 1 mps 716 mmHg 22%
    20:00 +20°C° 0 mm 1 mps 716 mmHg 21%
    21:00 +20°C° 0 mm 1 mps 716 mmHg 20%
    22:00 +20°C° 0 mm 1 mps 716 mmHg 20%
    23:00 +19°C° 0 mm 1 mps 716 mmHg 20%

    21 December, Thursday

    Time Temperature Precipitation Wind Pressure Humidity
    00:00 +19°C° 0 mm 1 mps 716 mmHg 19%
    01:00 +19°C° 0 mm 1 mps 716 mmHg 19%
    02:00 +19°C° 0 mm 1 mps 715 mmHg 18%
    03:00 +19°C° 0 mm 1 mps 715 mmHg 18%
    04:00 +19°C° 0 mm 1 mps 715 mmHg 18%
    05:00 +19°C° 0 mm 1 mps 715 mmHg 18%
    06:00 +19°C° 0 mm 1 mps 716 mmHg 18%
    07:00 +20°C° 0 mm 1 mps 716 mmHg 19%
    08:00 +20°C° 0 mm 1 mps 716 mmHg 19%
    09:00 +22°C° 0 mm 1 mps 717 mmHg 17%
    10:00 +24°C° 0 mm 1 mps 717 mmHg 15%
    11:00 +26°C° 0 mm 1 mps 717 mmHg 13%
    12:00 +26°C° 0 mm 1 mps 716 mmHg 13%
    13:00 +26°C° 0 mm 1 mps 716 mmHg 13%
    14:00 +27°C° 0 mm 1 mps 716 mmHg 12%
    15:00 +26°C° 0 mm 1 mps 715 mmHg 14%
    16:00 +24°C° 0 mm 1 mps 715 mmHg 15%
    17:00 +23°C° 0 mm 1 mps 715 mmHg 16%
    18:00 +23°C° 0 mm 1 mps 715 mmHg 16%
    19:00 +23°C° 0 mm 2 mps 715 mmHg 16%
    20:00 +23°C° 0 mm 2 mps 715 mmHg 15%
    21:00 +21°C° 0 mm 2 mps 715 mmHg 16%
    22:00 +21°C° 0 mm 2 mps 715 mmHg 16%
    23:00 +21°C° 0 mm 2 mps 715 mmHg 16%

    22 December, Friday

    Time Temperature Precipitation Wind Pressure Humidity
    00:00 +20°C° 0 mm 2 mps 715 mmHg 17%
    01:00 +20°C° 0 mm 2 mps 714 mmHg 17%
    02:00 +20°C° 0 mm 2 mps 714 mmHg 18%
    03:00 +20°C° 0 mm 1 mps 714 mmHg 18%
    04:00 +20°C° 0 mm 1 mps 714 mmHg 19%
    05:00 +19°C° 0 mm 1 mps 714 mmHg 19%
    06:00 +20°C° 0 mm 1 mps 714 mmHg 19%
    07:00 +20°C° 0 mm 1 mps 714 mmHg 19%
    08:00 +20°C° 0 mm 2 mps 714 mmHg 20%
    09:00 +22°C° 0 mm 1 mps 714 mmHg 18%
    10:00 +24°C° 0 mm 1 mps 714 mmHg 16%
    11:00 +25°C° 0 mm 1 mps 714 mmHg 15%
    12:00 +26°C° 0 mm 1 mps 714 mmHg 14%
    13:00 +26°C° 0 mm 1 mps 713 mmHg 14%
    14:00 +26°C° 0 mm 1 mps 713 mmHg 14%
    15:00 +25°C° 0 mm 1 mps 713 mmHg 16%
    16:00 +23°C° 0 mm 1 mps 713 mmHg 19%
    17:00 +22°C° 0 mm 1 mps 713 mmHg 21%
    18:00 +22°C° 0 mm 1 mps 713 mmHg 20%
    19:00 +21°C° 0 mm 1 mps 713 mmHg 20%
    20:00 +21°C° 0 mm 1 mps 712 mmHg 19%
    21:00 +21°C° 0 mm 1 mps 712 mmHg 19%
    22:00 +21°C° 0 mm 1 mps 712 mmHg 18%
    23:00 +19°C° 0 mm 2 mps 712 mmHg 18%

    23 December, Saturday

    Time Temperature Precipitation Wind Pressure Humidity
    00:00 +19°C° 0 mm 2 mps 711 mmHg 18%
    01:00 +19°C° 0 mm 2 mps 711 mmHg 18%
    02:00 +19°C° 0 mm 2 mps 711 mmHg 18%
    03:00 +19°C° 0 mm 2 mps 711 mmHg 18%
    04:00 +18°C° 0 mm 2 mps 710 mmHg 18%
    05:00 +18°C° 0 mm 2 mps 710 mmHg 19%
    06:00 +18°C° 0 mm 2 mps 710 mmHg 19%
    07:00 +19°C° 0 mm 2 mps 710 mmHg 19%
    08:00 +20°C° 0 mm 2 mps 711 mmHg 19%
    09:00 +22°C° 0 mm 3 mps 711 mmHg 17%
    10:00 +25°C° 0 mm 3 mps 711 mmHg 16%
    11:00 +27°C° 0 mm 3 mps 711 mmHg 14%
    12:00 +27°C° 0 mm 4 mps 710 mmHg 15%
    13:00 +27°C° 0 mm 5 mps 710 mmHg 16%
    14:00 +27°C° 0 mm 6 mps 709 mmHg 17%
    15:00 +26°C° 0 mm 5 mps 709 mmHg 20%
    16:00 +24°C° 0 mm 3 mps 709 mmHg 24%
    17:00 +21°C° 0 mm 2 mps 709 mmHg 28%
    18:00 +21°C° 0 mm 3 mps 710 mmHg 35%
    19:00 +20°C° 0 mm 4 mps 710 mmHg 42%
    20:00 +19°C° 0 mm 4 mps 710 mmHg 49%
    21:00 +19°C° 0 mm 4 mps 710 mmHg 55%
    22:00 +17°C° 0 mm 5 mps 710 mmHg 61%
    23:00 +16°C° 0 mm 5 mps 710 mmHg 67%
    Show more